TimeEST,TemperatureF,Dew PointF,Humidity,Sea Level PressureIn,VisibilityMPH,Wind Direction,Wind SpeedMPH,Gust SpeedMPH,PrecipitationIn,Events,Conditions,WindDirDegrees,DateUTC
12:15 AM,19.4,14.0,80,30.26,10.0,NNW,11.5,-,N/A,,Overcast,340,2013-02-21 05:15:00
12:35 AM,19.4,14.0,80,30.26,10.0,NNW,9.2,-,N/A,Snow,Light Snow,340,2013-02-21 05:35:00
12:54 AM,19.4,15.8,86,30.27,10.0,NNW,4.6,-,N/A,,Overcast,340,2013-02-21 05:54:00
1:15 AM,19.4,14.0,80,30.27,10.0,NNW,6.9,-,N/A,Snow,Light Snow,340,2013-02-21 06:15:00
1:34 AM,19.4,14.0,80,30.28,10.0,NNW,6.9,-,N/A,Snow,Light Snow,330,2013-02-21 06:34:00
1:55 AM,19.4,14.0,80,30.28,10.0,NNW,11.5,16.1,N/A,,Overcast,340,2013-02-21 06:55:00
2:15 AM,19.4,15.8,86,30.28,10.0,North,6.9,-,N/A,,Overcast,350,2013-02-21 07:15:00
2:34 AM,19.4,15.8,86,30.28,10.0,North,8.1,-,N/A,,Overcast,360,2013-02-21 07:34:00
2:55 AM,19.4,15.8,86,30.27,10.0,North,5.8,-,N/A,,Overcast,360,2013-02-21 07:55:00
3:14 AM,19.4,15.8,86,30.28,10.0,North,9.2,-,N/A,,Overcast,360,2013-02-21 08:14:00
3:35 AM,19.4,15.8,86,30.28,10.0,NNW,8.1,-,N/A,,Overcast,330,2013-02-21 08:35:00
3:55 AM,19.4,14.0,80,30.28,10.0,NNW,9.2,-,N/A,,Overcast,330,2013-02-21 08:55:00
4:14 AM,19.4,14.0,80,30.28,10.0,North,9.2,-,N/A,,Overcast,350,2013-02-21 09:14:00
4:35 AM,19.4,14.0,80,30.29,10.0,NNW,8.1,-,N/A,,Overcast,340,2013-02-21 09:35:00
4:55 AM,19.4,15.8,86,30.28,10.0,North,8.1,-,N/A,,Overcast,360,2013-02-21 09:55:00
5:14 AM,19.4,14.0,80,30.29,10.0,North,8.1,-,N/A,,Overcast,10,2013-02-21 10:14:00
5:35 AM,19.4,14.0,80,30.29,10.0,North,8.1,-,N/A,,Overcast,10,2013-02-21 10:35:00
5:55 AM,19.4,15.8,86,30.30,10.0,North,8.1,-,N/A,,Overcast,10,2013-02-21 10:55:00
6:14 AM,19.4,15.8,86,30.30,10.0,North,5.8,-,N/A,,Overcast,10,2013-02-21 11:14:00
6:54 AM,19.4,15.8,86,30.32,10.0,North,3.5,-,N/A,,Overcast,360,2013-02-21 11:54:00
7:15 AM,19.4,15.8,86,30.32,10.0,North,8.1,-,N/A,,Overcast,360,2013-02-21 12:15:00
7:35 AM,19.4,15.8,86,30.31,10.0,NNE,8.1,-,N/A,,Overcast,20,2013-02-21 12:35:00
7:54 AM,19.4,15.8,86,30.32,10.0,North,4.6,-,N/A,,Overcast,10,2013-02-21 12:54:00
8:15 AM,19.4,15.8,86,30.31,10.0,NNE,5.8,-,N/A,,Overcast,20,2013-02-21 13:15:00
8:35 AM,19.4,15.8,86,30.30,10.0,North,5.8,-,N/A,,Overcast,360,2013-02-21 13:35:00
8:54 AM,19.4,15.8,86,30.31,10.0,NNE,5.8,-,N/A,,Overcast,30,2013-02-21 13:54:00
9:15 AM,21.2,15.8,80,30.31,10.0,NNE,5.8,-,N/A,,Overcast,30,2013-02-21 14:15:00
9:35 AM,21.2,15.8,80,30.32,10.0,NE,6.9,-,N/A,,Overcast,50,2013-02-21 14:35:00
9:54 AM,21.2,15.8,80,30.34,10.0,NE,5.8,-,N/A,,Overcast,50,2013-02-21 14:54:00
10:15 AM,21.2,15.8,80,30.33,10.0,NE,5.8,-,N/A,,Overcast,40,2013-02-21 15:15:00
10:35 AM,21.2,15.8,80,30.33,10.0,Calm,Calm,-,N/A,,Overcast,0,2013-02-21 15:35:00
10:55 AM,21.2,17.6,86,30.32,10.0,ENE,6.9,-,N/A,,Overcast,70,2013-02-21 15:55:00
11:15 AM,21.2,17.6,86,30.31,10.0,East,8.1,-,N/A,,Overcast,100,2013-02-21 16:15:00
11:34 AM,23.0,17.6,80,30.30,10.0,NE,6.9,-,N/A,,Overcast,50,2013-02-21 16:34:00
11:55 AM,23.0,17.6,80,30.31,10.0,NE,4.6,-,N/A,,Overcast,50,2013-02-21 16:55:00
12:15 PM,23.0,15.8,74,30.34,10.0,Calm,Calm,-,N/A,,Overcast,0,2013-02-21 17:15:00
12:34 PM,24.8,17.6,74,30.34,10.0,Calm,Calm,-,N/A,,Overcast,0,2013-02-21 17:34:00
12:55 PM,24.8,17.6,74,30.32,10.0,ENE,3.5,-,N/A,,Overcast,60,2013-02-21 17:55:00
1:15 PM,24.8,17.6,74,30.30,10.0,East,6.9,-,N/A,,Overcast,100,2013-02-21 18:15:00
1:34 PM,24.8,17.6,74,30.28,10.0,East,8.1,-,N/A,,Overcast,80,2013-02-21 18:34:00
1:55 PM,24.8,17.6,74,30.28,10.0,East,8.1,-,N/A,,Overcast,100,2013-02-21 18:55:00
2:15 PM,24.8,17.6,74,30.26,10.0,ENE,9.2,-,N/A,,Overcast,70,2013-02-21 19:15:00
2:35 PM,24.8,19.4,80,30.25,10.0,East,9.2,-,N/A,,Overcast,80,2013-02-21 19:35:00
2:55 PM,24.8,19.4,80,30.21,10.0,ENE,12.7,17.3,N/A,,Overcast,70,2013-02-21 19:55:00
3:15 PM,24.8,17.6,74,30.21,10.0,East,10.4,-,N/A,,Overcast,100,2013-02-21 20:15:00
3:55 PM,24.8,19.4,80,30.23,10.0,East,10.4,-,N/A,,Overcast,100,2013-02-21 20:55:00
4:14 PM,24.8,19.4,80,30.25,10.0,East,8.1,-,N/A,,Overcast,80,2013-02-21 21:14:00
4:35 PM,26.6,17.6,69,30.26,10.0,East,9.2,-,N/A,,Overcast,100,2013-02-21 21:35:00
4:55 PM,26.6,19.4,74,30.24,10.0,East,10.4,-,N/A,,Overcast,100,2013-02-21 21:55:00
5:14 PM,26.6,19.4,74,30.24,10.0,East,9.2,-,N/A,,Overcast,100,2013-02-21 22:14:00
5:35 PM,24.8,19.4,80,30.24,10.0,East,11.5,-,N/A,,Overcast,100,2013-02-21 22:35:00
5:55 PM,24.8,19.4,80,30.25,10.0,East,10.4,-,N/A,,Overcast,100,2013-02-21 22:55:00
6:14 PM,24.8,19.4,80,30.24,10.0,East,11.5,-,N/A,,Overcast,100,2013-02-21 23:14:00
6:35 PM,24.8,19.4,80,30.23,10.0,ESE,11.5,-,N/A,,Overcast,110,2013-02-21 23:35:00
6:55 PM,24.8,17.6,74,30.22,10.0,ESE,12.7,-,N/A,,Overcast,110,2013-02-21 23:55:00
7:14 PM,24.8,17.6,74,30.23,10.0,ESE,13.8,18.4,N/A,,Overcast,110,2013-02-22 00:14:00
7:35 PM,24.8,17.6,74,30.23,10.0,ESE,11.5,20.7,N/A,,Overcast,110,2013-02-22 00:35:00
7:55 PM,24.8,17.6,74,30.22,10.0,East,12.7,-,N/A,,Overcast,100,2013-02-22 00:55:00
8:14 PM,24.8,17.6,74,30.21,10.0,East,16.1,19.6,N/A,,Overcast,100,2013-02-22 01:14:00
8:35 PM,24.8,17.6,74,30.20,10.0,East,15.0,18.4,N/A,,Overcast,100,2013-02-22 01:35:00
8:55 PM,23.0,17.6,80,30.19,10.0,ESE,17.3,-,N/A,,Mostly Cloudy,110,2013-02-22 01:55:00
9:14 PM,23.0,17.6,80,30.17,10.0,ESE,17.3,25.3,N/A,,Clear,110,2013-02-22 02:14:00
9:35 PM,21.2,15.8,80,30.17,10.0,ESE,12.7,20.7,N/A,,Clear,110,2013-02-22 02:35:00
9:54 PM,21.2,15.8,80,30.17,10.0,ESE,19.6,26.5,N/A,,Clear,110,2013-02-22 02:54:00
10:15 PM,21.2,15.8,80,30.17,10.0,East,16.1,24.2,N/A,,Clear,100,2013-02-22 03:15:00
10:35 PM,21.2,15.8,80,30.18,10.0,ESE,16.1,21.9,N/A,,Scattered Clouds,110,2013-02-22 03:35:00
10:54 PM,19.4,15.8,86,30.17,10.0,ESE,13.8,23.0,N/A,,Scattered Clouds,120,2013-02-22 03:54:00
11:15 PM,19.4,15.8,86,30.16,10.0,ESE,18.4,23.0,N/A,,Mostly Cloudy,120,2013-02-22 04:15:00
11:35 PM,19.4,15.8,86,30.13,10.0,ESE,15.0,20.7,N/A,,Scattered Clouds,110,2013-02-22 04:35:00
11:54 PM,19.4,15.8,86,30.11,10.0,ESE,18.4,25.3,N/A,,Clear,110,2013-02-22 04:54:00